Orbital Elements at Epoch 2459200.5 (2020-Dec-17.0) TDB
Reference: JPL 14 (heliocentric ecliptic J2000)
Element | Value | Uncertainty (1-sigma) | Units |
e | .2308753772922372 | 9.1383e-08 | |
a | 2.56879153057535 | 2.2306e-08 | au |
q | 1.975720816768663 | 2.4805e-07 | au |
i | 11.87172319355755 | 7.071e-06 | deg |
node | 267.8810325849787 | 3.0615e-05 | deg |
peri | 277.2099880331354 | 3.8468e-05 | deg |
M | 26.53920944163421 | 2.7718e-05 | deg |
tp | 2459089.639406591588 (2020-Aug-28.13940659) | 0.00011458 | TDB |
period | 1503.80566967524 4.12 | 1.9587e-05 5.363e-08 | d yr |
n | .2393926338086922 | 3.1181e-09 | deg/d |
Q | 3.161862244382037 | 2.7456e-08 | au |
|
| | Orbit Determination Parameters
Additional Information
|